Regional Weather Roundup
Issued by NWS

Home | Current Version | Previous Version | Graphics & Text | Print | Product List | Glossary On
Versions: 1 2 3 4 5 6 7 8 9 10 11 12 13 14 15 16 17 18 19 20 21 22 23 24 25 26 27 28 29 30 31 32 33 34 35 36 37 38 39 40 41 42 43 44 45 46 47 48 49 50
000
ASUS43 KLOT 030603
RWRIL

ILLINOIS REGIONAL WEATHER ROUNDUP
NATIONAL WEATHER SERVICE CHICAGO/ROMEOVILLE IL
100 AM CDT TUE MAY 03 2016

NOTE: "FAIR" INDICATES FEW OR NO CLOUDS BELOW 12,000 FEET WITH NO
SIGNIFICANT WEATHER AND/OR OBSTRUCTIONS TO VISIBILITY.

* THESE STATIONS ARE NOT UNDER NWS QUALITY CONTROL. THEY ALSO MAY NOT
  REPORT WEATHER SUCH AS PRECIPITATION OR FOG.

ILZ001-002-007-009-015-016-024-030700-
NORTHWEST ILLINOIS

CITY           SKY/WX    TMP DP  RH WIND       PRES   REMARKS
MOLINE         CLEAR     45  42  89 CALM      30.02S
6HR MIN TEMP:  43; 6HR MAX TEMP:  58;

STERLING*      CLOUDY    46  43  87 CALM      30.02F
$$

ILZ003-004-008-010-011-017-018-030700-
NORTH CENTRAL ILLINOIS

CITY           SKY/WX    TMP DP  RH WIND       PRES   REMARKS
ROCKFORD       CLEAR     42  37  82 CALM      30.03S
6HR MIN TEMP:  41; 6HR MAX TEMP:  59;

FREEPORT*      PTCLDY    43  37  79 SE3       30.03S
ROCHELLE*      CLEAR     42  40  93 CALM      30.02F
DE KALB*       CLEAR     42  36  79 W5        30.02S
$$

ILZ005-006-012>014-019>023-030700-
NORTHEAST ILLINOIS

CITY           SKY/WX    TMP DP  RH WIND       PRES   REMARKS
CHICAGO-OHARE  CLEAR     44  35  70 CALM      30.00R
6HR MIN TEMP:  42; 6HR MAX TEMP:  55;

CHICAGO-MIDWAY CLEAR     45  35  68 CALM      30.00S
6HR MIN TEMP:  44; 6HR MAX TEMP:  55;

AURORA         CLEAR     39  36  89 W3        30.02R
6HR MIN TEMP:  38; 6HR MAX TEMP:  57;

LANSING*       CLEAR     42  39  89 CALM      30.00S
WAUKEGAN       CLEAR     39  36  89 W3        29.99S
6HR MIN TEMP:  37; 6HR MAX TEMP:  51;

DUPAGE AIRPORT CLEAR     41  34  76 W3        30.00S
6HR MIN TEMP:  40; 6HR MAX TEMP:  55;

WHEELING       CLEAR     40  36  86 CALM      30.01S
6HR MIN TEMP:  39; 6HR MAX TEMP:  53;

NORTHERLY ISL    N/A     47  36  65 CALM        N/A
NORTHERLY ISL    N/A     47  36  65 CALM        N/A
$$

LMZ740>746-030700-
SOUTHERN LAKE MICHIGAN

STATION/POSITION SKY/WX   TEMP    WIND        PRES    VSBY  WAVE
                          AIR SEA DIR/SP/G                  HT/PER
                          (F)     (DEG/KT/KT) (MB)    (MI)  (FT/S)
SOUTHERN BUOY              42 41  330/  4/  4 1015.7          1
HARRISON CRIB              49     290/  3/  3   N/A
BURNHAM HARBOR             46     270/  2/  4   N/A
CALUMET HARBOR             46     210/  1/  1 1015.4F
BURNS HARBOR               46     300/  4/  5 1016.3F
MICHIGAN CITY              45     260/  4/  5   N/A
ST. JOSEPH                 46 48                N/A           1/ 3
$$

ILZ025>027-034>036-040-047-049-050-058-095>099-030700-
WEST-CENTRAL ILLINOIS

CITY           SKY/WX    TMP DP  RH WIND       PRES   REMARKS
QUINCY         CLOUDY    49  47  93 NW3       30.03S
MACOMB*        CLOUDY    51  47  88 NW5       30.05S
PITTSFIELD*    CLOUDY    51  49  93 W3        30.05R
$$

ILZ028>032-037-038-041>044-048-051>054-059>061-030700-
CENTRAL ILLINOIS

CITY           SKY/WX    TMP DP  RH WIND       PRES   REMARKS
BLOOMINGTON    PTCLDY    46  43  90 CALM      30.03S
DECATUR        CLOUDY    50  44  80 N5        30.01F
PEORIA         CLEAR     48  43  82 CALM      30.02S
6HR MIN TEMP:  48; 6HR MAX TEMP:  56;

SPRINGFIELD    CLOUDY    52  48  86 NW3       30.02F
6HR MIN TEMP:  52; 6HR MAX TEMP:  56;

TAYLORVILLE    NOT AVBL
$$

ILZ033-039-045-046-055>057-062-063-030700-
EAST-CENTRAL ILLINOIS

CITY           SKY/WX    TMP DP  RH WIND       PRES   REMARKS
CHAMPAIGN      MOCLDY    45  44  97 N8        30.00F
MATTOON        CLOUDY    51  48  89 N5        29.98F
$$

ILZ079-100>102-030700-
SOUTHWEST ILLINOIS

CITY           SKY/WX    TMP DP  RH WIND       PRES   REMARKS
ALTON          LGT RAIN  51  49  93 NW3       30.03S
CAHOKIA*       CLOUDY    54  49  83 CALM      30.03S
SPARTA*        CLOUDY    53  49  88 W3        30.03F
$$

ILZ064>066-069>071-074>076-080>082-084>086-088>090-092>094-030700-
SOUTH-CENTRAL ILLINOIS

CITY           SKY/WX    TMP DP  RH WIND       PRES   REMARKS
CARBONDALE     CLOUDY    53  49  86 NW5       30.01F
6HR MIN TEMP:  52; 6HR MAX TEMP:  59;

EFFINGHAM*     CLOUDY    53  50  90 W6        30.01F
MT. VERNON     CLOUDY    54  46  76 CALM      30.01F
SALEM*         CLOUDY    54  50  87 NW5       30.01S
$$

ILZ067-068-072-073-078-083-087-091-030700-
SOUTHEAST ILLINOIS

CITY           SKY/WX    TMP DP  RH WIND       PRES   REMARKS
LAWRENCEVILLE  CLOUDY    53  51  93 NW6       29.98F
FLORA*         CLOUDY    54  51  89 NW6       30.00S
HARRISBURG*    MOCLDY    53  50  89 CALM      30.00F
ROBINSON*      CLOUDY    52  51  97 CALM      29.98F
$$

ABBREVIATIONS USED IN REMARKS
   TC - TEMPERATURE IN CELSIUS
  WCI - WIND CHILL INDEX
   HX - HEAT INDEX
  VSB - VISIBILITY
$$




USA.gov is the U.S. government's official web portal to all federal, state and local government web resources and services.